When you browse on this site, cookies collect data to enhance your experience and personalize the content and advertising you see.
Visit our Privacy Policy to learn more. By continuing to use the site, you agree to this use of cookies and data.
  • In Sweden
  • List of Countries
  • For 7 days
  • Water Temperature
  • Satellite Maps
  • Weather Map
  • Weather Widgets
  • user-avatar
    Login

    Hourly Weather Turovino

    Today, 19 January, Saturday

    Time Temperature Precipitation Wind Pressure Humidity
    00:00 -10°C° 0 mm 3 mps 738 mmHg 93%
    01:00 -10°C° 0 mm 2 mps 739 mmHg 94%
    02:00 -13°C° 0 mm 2 mps 740 mmHg 94%
    03:00 -13°C° 0 mm 2 mps 740 mmHg 95%
    04:00 -14°C° 0 mm 2 mps 741 mmHg 95%
    05:00 -15°C° 0 mm 2 mps 741 mmHg 95%
    06:00 -15°C° 0 mm 3 mps 741 mmHg 95%
    07:00 -14°C° 0 mm 3 mps 741 mmHg 94%
    08:00 -14°C° 0 mm 4 mps 742 mmHg 94%
    09:00 -12°C° 0.1 mm 4 mps 742 mmHg 92%
    10:00 -11°C° 0.1 mm 4 mps 742 mmHg 91%
    11:00 -10°C° 0.1 mm 4 mps 742 mmHg 90%
    12:00 -9°C° 0.1 mm 4 mps 742 mmHg 89%
    13:00 -9°C° 0.1 mm 4 mps 743 mmHg 89%
    14:00 -8°C° 0.1 mm 4 mps 743 mmHg 89%
    15:00 -10°C° 0.1 mm 4 mps 743 mmHg 89%
    16:00 -12°C° 0.1 mm 3 mps 744 mmHg 89%
    17:00 -13°C° 0.1 mm 3 mps 744 mmHg 89%
    18:00 -13°C° 0 mm 3 mps 745 mmHg 90%
    19:00 -14°C° 0 mm 3 mps 745 mmHg 92%
    20:00 -14°C° 0 mm 3 mps 745 mmHg 93%
    21:00 -13°C° 0 mm 3 mps 746 mmHg 93%
    22:00 -13°C° 0 mm 3 mps 746 mmHg 93%
    23:00 -13°C° 0 mm 3 mps 746 mmHg 93%

    Tomorrow, 20 January, Sunday

    Time Temperature Precipitation Wind Pressure Humidity
    00:00 -12°C° 0 mm 3 mps 746 mmHg 93%
    01:00 -10°C° 0 mm 3 mps 746 mmHg 93%
    02:00 -10°C° 0 mm 3 mps 746 mmHg 92%
    03:00 -9°C° 0 mm 3 mps 746 mmHg 92%
    04:00 -10°C° 0 mm 4 mps 745 mmHg 91%
    05:00 -9°C° 0 mm 4 mps 745 mmHg 91%
    06:00 -10°C° 0.1 mm 5 mps 744 mmHg 91%
    07:00 -10°C° 0.1 mm 5 mps 744 mmHg 91%
    08:00 -10°C° 0.1 mm 5 mps 743 mmHg 91%
    09:00 -9°C° 0.4 mm 6 mps 743 mmHg 90%
    10:00 -8°C° 0.4 mm 6 mps 743 mmHg 88%
    11:00 -7°C° 0.4 mm 7 mps 742 mmHg 87%
    12:00 -6°C° 0.2 mm 6 mps 742 mmHg 87%
    13:00 -6°C° 0.2 mm 6 mps 742 mmHg 88%
    14:00 -5°C° 0.2 mm 6 mps 741 mmHg 89%
    15:00 -6°C° 0.1 mm 5 mps 741 mmHg 86%
    16:00 -7°C° 0.1 mm 5 mps 741 mmHg 84%
    17:00 -8°C° 0.1 mm 4 mps 741 mmHg 81%
    18:00 -10°C° 0 mm 5 mps 741 mmHg 82%
    19:00 -10°C° 0 mm 5 mps 741 mmHg 84%
    20:00 -11°C° 0 mm 5 mps 741 mmHg 85%
    21:00 -11°C° 0 mm 5 mps 741 mmHg 85%
    22:00 -11°C° 0 mm 5 mps 741 mmHg 86%
    23:00 -11°C° 0 mm 5 mps 742 mmHg 86%

    Day after tomorrow, 21 January, Monday

    Time Temperature Precipitation Wind Pressure Humidity
    00:00 -12°C° 0 mm 5 mps 742 mmHg 87%
    01:00 -13°C° 0 mm 5 mps 743 mmHg 87%
    02:00 -12°C° 0 mm 4 mps 743 mmHg 88%
    03:00 -14°C° 0.1 mm 4 mps 743 mmHg 88%
    04:00 -14°C° 0.1 mm 4 mps 744 mmHg 89%
    05:00 -15°C° 0.1 mm 4 mps 744 mmHg 90%
    06:00 -16°C° 0 mm 4 mps 745 mmHg 91%
    07:00 -18°C° 0 mm 4 mps 745 mmHg 91%
    08:00 -19°C° 0 mm 4 mps 745 mmHg 92%
    09:00 -19°C° 0 mm 4 mps 746 mmHg 91%
    10:00 -18°C° 0 mm 4 mps 746 mmHg 91%
    11:00 -18°C° 0 mm 4 mps 746 mmHg 90%
    12:00 -16°C° 0 mm 3 mps 747 mmHg 90%
    13:00 -16°C° 0 mm 3 mps 747 mmHg 89%
    14:00 -15°C° 0 mm 3 mps 747 mmHg 89%
    15:00 -16°C° 0 mm 3 mps 747 mmHg 90%
    16:00 -17°C° 0 mm 3 mps 748 mmHg 91%
    17:00 -18°C° 0 mm 3 mps 748 mmHg 93%
    18:00 -18°C° 0 mm 3 mps 748 mmHg 94%
    19:00 -18°C° 0 mm 2 mps 749 mmHg 94%
    20:00 -19°C° 0 mm 2 mps 749 mmHg 95%
    21:00 -19°C° 0 mm 2 mps 749 mmHg 96%
    22:00 -19°C° 0 mm 2 mps 749 mmHg 97%
    23:00 -20°C° 0 mm 2 mps 749 mmHg 97%

    22 January, Tuesday

    Time Temperature Precipitation Wind Pressure Humidity
    00:00 -20°C° 0 mm 2 mps 750 mmHg 98%
    01:00 -21°C° 0 mm 2 mps 750 mmHg 98%
    02:00 -21°C° 0 mm 2 mps 750 mmHg 99%
    03:00 -21°C° 0 mm 2 mps 750 mmHg 99%
    04:00 -21°C° 0 mm 2 mps 750 mmHg 99%
    05:00 -19°C° 0 mm 1 mps 750 mmHg 99%
    06:00 -20°C° 0 mm 1 mps 750 mmHg 99%
    07:00 -20°C° 0 mm 1 mps 750 mmHg 99%
    08:00 -20°C° 0 mm 1 mps 750 mmHg 99%
    09:00 -19°C° 0 mm 1 mps 750 mmHg 98%
    10:00 -17°C° 0 mm 1 mps 750 mmHg 98%
    11:00 -16°C° 0 mm 1 mps 750 mmHg 97%
    12:00 -16°C° 0 mm 1 mps 750 mmHg 97%
    13:00 -15°C° 0 mm 1 mps 750 mmHg 97%
    14:00 -15°C° 0 mm 1 mps 749 mmHg 97%
    15:00 -15°C° 0 mm 1 mps 749 mmHg 97%
    16:00 -15°C° 0 mm 1 mps 749 mmHg 98%
    17:00 -16°C° 0 mm 1 mps 749 mmHg 98%
    18:00 -15°C° 0 mm 1 mps 748 mmHg 98%
    19:00 -15°C° 0 mm 1 mps 748 mmHg 98%
    20:00 -15°C° 0 mm 1 mps 748 mmHg 98%
    21:00 -15°C° 0 mm 1 mps 748 mmHg 98%
    22:00 -15°C° 0 mm 1 mps 748 mmHg 98%
    23:00 -15°C° 0 mm 1 mps 748 mmHg 98%

    23 January, Wednesday

    Time Temperature Precipitation Wind Pressure Humidity
    00:00 -15°C° 0 mm 1 mps 748 mmHg 98%
    01:00 -15°C° 0 mm 1 mps 748 mmHg 98%
    02:00 -15°C° 0 mm 1 mps 748 mmHg 98%
    03:00 -16°C° 0 mm 1 mps 748 mmHg 98%
    04:00 -16°C° 0 mm 1 mps 748 mmHg 98%
    05:00 -17°C° 0 mm 1 mps 748 mmHg 98%
    06:00 -17°C° 0 mm 0 mps 748 mmHg 98%
    07:00 -18°C° 0 mm 0 mps 748 mmHg 98%
    08:00 -18°C° 0 mm 0 mps 749 mmHg 99%
    09:00 -17°C° 0 mm 0 mps 749 mmHg 98%
    10:00 -16°C° 0 mm 1 mps 749 mmHg 97%
    11:00 -14°C° 0 mm 1 mps 749 mmHg 96%
    12:00 -14°C° 0 mm 1 mps 749 mmHg 95%
    13:00 -13°C° 0 mm 1 mps 749 mmHg 95%
    14:00 -12°C° 0 mm 1 mps 750 mmHg 95%
    15:00 -12°C° 0 mm 1 mps 750 mmHg 95%
    16:00 -13°C° 0 mm 1 mps 750 mmHg 96%
    17:00 -13°C° 0 mm 1 mps 750 mmHg 96%
    18:00 -12°C° 0 mm 1 mps 750 mmHg 96%
    19:00 -12°C° 0 mm 1 mps 750 mmHg 96%
    20:00 -11°C° 0 mm 1 mps 751 mmHg 96%
    21:00 -12°C° 0 mm 1 mps 751 mmHg 96%
    22:00 -12°C° 0 mm 1 mps 751 mmHg 97%
    23:00 -12°C° 0 mm 1 mps 751 mmHg 97%

    24 January, Thursday

    Time Temperature Precipitation Wind Pressure Humidity
    00:00 -14°C° 0 mm 1 mps 752 mmHg 97%
    01:00 -15°C° 0 mm 1 mps 752 mmHg 97%
    02:00 -18°C° 0 mm 2 mps 752 mmHg 97%
    03:00 -17°C° 0 mm 1 mps 753 mmHg 96%
    04:00 -18°C° 0 mm 1 mps 753 mmHg 96%
    05:00 -19°C° 0 mm 1 mps 753 mmHg 96%
    06:00 -20°C° 0 mm 1 mps 754 mmHg 96%
    07:00 -20°C° 0 mm 1 mps 754 mmHg 96%
    08:00 -20°C° 0 mm 1 mps 755 mmHg 96%
    09:00 -19°C° 0 mm 1 mps 755 mmHg 95%
    10:00 -18°C° 0 mm 1 mps 756 mmHg 94%
    11:00 -17°C° 0 mm 1 mps 756 mmHg 93%
    12:00 -16°C° 0 mm 1 mps 757 mmHg 93%
    13:00 -16°C° 0 mm 1 mps 757 mmHg 93%
    14:00 -16°C° 0 mm 1 mps 757 mmHg 93%
    15:00 -17°C° 0 mm 1 mps 757 mmHg 92%
    16:00 -18°C° 0 mm 1 mps 758 mmHg 92%
    17:00 -21°C° 0 mm 2 mps 758 mmHg 92%
    18:00 -21°C° 0 mm 2 mps 758 mmHg 91%
    19:00 -21°C° 0 mm 2 mps 759 mmHg 91%
    20:00 -21°C° 0 mm 2 mps 759 mmHg 91%
    21:00 -21°C° 0 mm 2 mps 759 mmHg 90%
    22:00 -21°C° 0 mm 2 mps 760 mmHg 90%
    23:00 -21°C° 0 mm 2 mps 760 mmHg 89%
    Show more